Puebla, Mexico

12:54 AM CDT on July 27, 2017 (GMT -0500)
Hermanos Serdan International

Weather History for MMPB - March, 2013

Change the Weather History Date:

Friday, March 1, 2013

  Actual Average Record
Temperature  
Mean Temperature 60 °F -  
Max Temperature 74 °F 71 °F 86 °F (2017)
Min Temperature 46 °F 44 °F 35 °F (1999)
Degree Days  
Heating Degree Days 5    
Growing Degree Days 10 (Base 50)    
Moisture  
Dew Point 44 °F    
Average Humidity 59    
Maximum Humidity 82    
Minimum Humidity 24    
Precipitation  
Precipitation 0.02 in - - ()
Sea Level Pressure  
Sea Level Pressure 30.13 in    
Wind  
Wind Speed 7 mph ()    
Max Wind Speed 26 mph    
Max Gust Speed 32 mph    
Visibility 7.5 miles    
Events Rain , Thunderstorm    
Averages and records for this station are not official NWS values.
T = Trace of Precipitation, MM = Missing Value Source: Averaged Metar Reports

Daily Weather History Graph

Daily Weather History Graph

Search for Another Location

Airport or City:

Trip Planner

Search our weather history database for the weather conditions in past years. The results will help you decide how hot, cold, wet, or windy it might be!

Date:

Astronomy

Mar. 01, 2013 Rise Set
Actual Time 6:51 AM CST 6:38 PM CST
Civil Twilight 6:29 AM CST 7:00 PM CST
Nautical Twilight 6:04 AM CST 7:26 PM CST
Astronomical Twilight 5:38 AM CST 7:51 PM CST
Moon 10:28 PM CST (3/1) 9:20 AM CST (3/1)
Length of Visible Light 12h 30m
Length of Day
11h 46m
Waning Gibbous, 83% of the Moon is Illuminated
Mar 1
Waning Gibbous
Mar 4
Last Quarter
Mar 11
New
Mar 19
First Quarter
Mar 27
Full

Hourly Weather History & Observations

Time (CST) Temp. Windchill Dew Point Humidity Pressure Visibility Wind Dir Wind Speed Gust Speed Precip Events Conditions
2:50 AM 54 °F - 47 °F 71% 29.77 in 3 mi NE 2.2 mph - -   Overcast
5:46 AM 50.0 °F - 44.6 °F 82% 30.25 in 10.0 mi WSW 3.5 mph - N/A   Overcast
5:50 AM 54 °F - 47 °F 68% 29.84 in 3 mi NE 2.2 mph - -   Overcast
6:40 AM 50.0 °F - 44.6 °F 82% 30.26 in 10.0 mi Calm Calm - N/A   Overcast
7:40 AM 51.8 °F - 46.4 °F 82% 30.27 in 8.0 mi Calm Calm - N/A   Overcast
8:40 AM 53.6 °F - 46.4 °F 77% 30.29 in 8.0 mi Calm Calm - N/A   Overcast
8:50 AM 55 °F - 49 °F 74% 29.92 in 6 mi ENE 4.5 mph - -   Overcast
9:42 AM 55.4 °F - 46.4 °F 72% 30.29 in 6.0 mi SE 8.1 mph - N/A   Overcast
10:44 AM 57.2 °F - 48.2 °F 72% 30.29 in 6.0 mi SSE 9.2 mph - N/A   Overcast
11:42 AM 62.6 °F - 48.2 °F 59% 30.25 in 6.0 mi SSE 15.0 mph - N/A   Overcast
11:50 AM 63 °F - 51 °F 56% 29.89 in 12 mi ESE 2.2 mph - -   Overcast
12:42 PM 66.2 °F - 48.2 °F 52% 30.22 in 6.0 mi SSE 21.9 mph - N/A   Overcast
1:41 PM 69.8 °F - 48.2 °F 46% 30.17 in 8.0 mi SSE 16.1 mph - N/A   Mostly Cloudy
2:40 PM 72 °F - 48 °F 31%  in 12 mi SE 4.5 mph - -   Haze
2:40 PM 71.6 °F - 46.4 °F 41% 30.13 in 10.0 mi South 20.7 mph 32.2 mph N/A   Mostly Cloudy
3:41 PM 69.8 °F - 42.8 °F 38% 30.09 in 10.0 mi South 26.5 mph - N/A   Mostly Cloudy
4:40 PM 69.8 °F - 44.6 °F 40% 30.10 in 10.0 mi South 24.2 mph - N/A   Mostly Cloudy
5:40 PM 72 °F - 43 °F 24% 29.64 in 6 mi SSE 6.7 mph - -   Haze
5:41 PM 68.0 °F - 42.8 °F 40% 30.11 in 10.0 mi South 21.9 mph - N/A   Mostly Cloudy
6:40 PM 66.2 °F - 42.8 °F 43% 30.13 in 10.0 mi South 19.6 mph - N/A   Mostly Cloudy
7:44 PM 62.6 °F - 44.6 °F 52% 30.19 in 10.0 mi Calm Calm - N/A   Mostly Cloudy
8:47 PM 53.6 °F - 37.4 °F 54% 30.27 in 10.0 mi NNE 17.3 mph - N/A   Overcast
8:50 PM 52 °F - 38 °F 47% 29.74 in 3 mi ENE 11.2 mph - -   Mostly Cloudy
9:04 PM 51.8 °F - 37.4 °F 58% 30.31 in 8.0 mi NNE 10.4 mph - N/A Rain , Thunderstorm Light Thunderstorms and Rain
9:40 PM 48.2 °F - 42.8 °F 82% 30.29 in 5.0 mi ENE 11.5 mph - N/A Rain Light Rain
10:02 PM 46.4 °F 41.9 °F 41.0 °F 81% 30.31 in 6.0 mi NE 9.2 mph - N/A   Overcast
10:43 PM 48.2 °F - 39.2 °F 71% 30.32 in 6.0 mi NNE 11.5 mph - N/A   Overcast
11:42 PM 48.2 °F - 35.6 °F 62% 30.34 in 6.0 mi NNE 12.7 mph - N/A   Mostly Cloudy
11:50 PM 49 °F - 41 °F 64% 29.87 in 3 mi NE 2.2 mph - -   Partly Cloudy